User: anonymous   Login
Location: Miami, Florida
(25.6830°N, 80.1700°W)
Time: 05:43:54
(UTC-04:00)
Language:

Envisat - Orbit

View from above orbital plane
View from above orbital plane
View from above satellite
View from above satellite

Ground track
Ground track

The orbit data is extracted from the following two-line orbital elements,

1 27386U 02009A   18168.73331743 -.00000028  00000-0  42318-5 0  9996
2 27386  98.1839 202.7686 0001235  93.3355  18.6107 14.37923994853602
Epoch (UTC): 17 June 2018 17:35:58
Eccentricity: 0.0001235
inclination: 98.1839°
perigee height: 764 km
apogee height: 766 km
right ascension of ascending node: 202.7686°
argument of perigee: 93.3355°
revolutions per day: 14.37923994
mean anomaly at epoch: 18.6107°
orbit number at epoch: 85360

The dashed part of the orbit path shows where the satellite is in the earth's shadow,  

DLR